EW3867 Weather Reports


Display with metric or nautical units.
time (UTC)temp
F
wind
direction
speed
MPH
gust
MPH
rain 1hr
in
rain 24hr
in
rain mn
in
humidity
%
barometer
mb
20260905050418 62 250 0.0 0.0 0.00 0.00 0.00 57 1007.3
20260905045424 62 250 0.0 0.0 0.00 0.00 0.00 56 1007.3
20260905044352 62 250 0.0 0.0 0.00 0.00 0.00 56 1007.4
20260905043408 62 250 0.0 0.0 0.00 0.00 0.00 56 1007.3
20260905042406 63 250 0.0 0.0 0.00 0.00 0.00 54 1007.3
20260905041420 64 250 0.0 0.0 0.00 0.00 0.00 54 1007.3
20260905040421 64 250 0.0 0.0 0.00 0.00 0.00 53 1007.4
20260905035405 64 250 0.0 0.0 0.00 0.00 0.00 53 1007.4
20260905034420 64 250 0.0 0.0 0.00 0.00 0.00 53 1007.4
20260905032331 65 250 0.0 0.0 0.00 0.00 0.00 51 1007.1
20260905031350 65 250 0.0 0.0 0.00 0.00 0.00 50 1007.0
20260905030316 66 250 0.0 0.0 0.00 0.00 0.00 49 1006.9
20260905025245 67 250 0.0 0.0 0.00 0.00 0.00 48 1006.6
20260905024228 69 250 0.0 0.0 0.00 0.00 0.00 46 1006.4
20260905023228 70 250 0.0 0.0 0.00 0.00 0.00 44 1006.2
20260905022217 71 250 0.0 0.0 0.00 0.00 0.00 43 1006.0
20260905021237 71 250 0.0 0.0 0.00 0.00 0.00 43 1005.9
20260905020242 72 250 0.0 0.0 0.00 0.00 0.00 42 1005.8
20260905015235 73 250 0.0 0.0 0.00 0.00 0.00 39 1005.8
20260905014233 74 250 0.0 0.0 0.00 0.00 0.00 39 1005.8
20260905013217 75 250 0.0 0.0 0.00 0.00 0.00 39 1005.8
20260905012218 76 250 0.0 0.0 0.00 0.00 0.00 37 1005.7
20260905011236 77 248 0.0 1.0 0.00 0.00 0.00 36 1005.8
20260905005121 79 248 0.0 2.0 0.00 0.00 0.00 34 1005.6
20260905004140 80 246 0.0 6.0 0.00 0.00 0.00 33 1005.5
20260905003155 81 224 0.0 0.0 0.00 0.00 0.00 32 1005.6
20260905002156 82 224 0.0 0.0 0.00 0.00 0.00 32 1005.6
20260905001132 81 224 0.0 1.0 0.00 0.00 0.00 32 1005.5
20260905000105 81 220 0.0 0.0 0.00 0.00 0.00 32 1005.4
20260904235104 81 220 0.0 6.0 0.00 0.00 0.00 32 1005.4
20260904234101 81 220 0.0 0.0 0.00 0.00 0.00 33 1005.5
20260904231936 80 225 0.0 0.0 0.00 0.00 0.00 33 1005.6
20260904230942 81 226 0.0 4.0 0.00 0.00 0.00 33 1005.8
20260904230000 81 226 0.0 0.0 0.00 0.00 0.00 34 1005.9
20260904223818 79 210 0.0 0.0 0.00 0.00 0.00 35 1006.1
20260904222800 79 210 0.0 0.0 0.00 0.00 0.00 35 1006.1
20260904221823 79 222 0.0 5.0 0.00 0.00 0.00 35 1006.1
20260904220803 79 235 0.0 0.0 0.00 0.00 0.00 35 1006.1
20260904215759 79 148 0.0 0.0 0.00 0.00 0.00 36 1006.2
20260904214741 78 148 0.0 0.0 0.00 0.00 0.00 36 1006.2
20260904213756 79 142 0.0 0.0 0.00 0.00 0.00 36 1006.3
20260904212731 79 125 0.0 0.0 0.00 0.00 0.00 36 1006.4
20260904210600 79 260 0.0 0.0 0.00 0.00 0.00 35 1006.6
20260904204504 79 0 3.0 1.0 0.00 0.00 0.00 36 1006.9
20260904203507 80 0 1.0 10.0 0.00 0.00 0.00 36 1007.0
20260904202526 79 268 0.0 0.0 0.00 0.00 0.00 37 1007.0
20260904201457 77 0 1.0 0.0 0.00 0.00 0.00 40 1007.2
20260904195352 80 228 6.0 16.0 0.00 0.00 0.00 36 1007.5
20260904194340 80 192 6.0 16.0 0.00 0.00 0.00 36 1007.5
20260904193328 77 0 0.0 0.0 0.00 0.00 0.00 41 1007.6
20260904192343 76 234 4.0 10.0 0.00 0.00 0.00 41 1007.8
20260904190226 75 250 0.0 3.0 0.00 0.00 0.00 44 1007.9
20260904184100 75 0 3.0 10.0 0.00 0.00 0.00 45 1008.1
20260904183103 75 0 1.0 10.0 0.00 0.00 0.00 45 1008.2
20260904182104 74 261 1.0 10.0 0.00 0.00 0.00 47 1008.4
20260904181039 74 245 0.0 7.0 0.00 0.00 0.00 47 1008.5
20260904174920 73 251 0.0 10.0 0.00 0.00 0.00 48 1008.7
20260904173933 73 0 0.0 1.0 0.00 0.00 0.00 49 1008.7
20260904172907 73 0 4.0 13.0 0.00 0.00 0.00 49 1008.9
20260904171902 74 260 1.0 13.0 0.00 0.00 0.00 48 1008.8
20260904165743 72 246 0.0 4.0 0.00 0.00 0.00 48 1008.9
20260904164734 73 248 1.0 0.0 0.00 0.00 0.00 47 1009.0
20260904163758 73 259 4.0 11.0 0.00 0.00 0.00 48 1008.9
20260904162735 73 267 4.0 12.0 0.00 0.00 0.00 46 1008.8
20260904160625 72 204 1.0 11.0 0.00 0.00 0.00 48 1008.6
20260904155623 71 229 1.0 0.0 0.00 0.00 0.00 49 1008.6
20260904154640 71 271 0.0 0.0 0.00 0.00 0.00 48 1008.7
20260904153703 71 0 0.0 11.0 0.00 0.00 0.00 46 1008.7
20260904152650 71 0 0.0 0.0 0.00 0.00 0.00 48 1008.6
20260904145409 67 0 0.0 0.0 0.00 0.00 0.00 52 1008.5
20260904144405 66 0 0.0 0.0 0.00 0.00 0.00 56 1008.4
20260904143354 65 0 0.0 0.0 0.00 0.00 0.00 57 1008.4
20260904142416 64 0 0.0 0.0 0.00 0.00 0.00 59 1008.4
20260904141409 63 0 0.0 0.0 0.00 0.00 0.00 62 1008.5
20260904140410 62 0 0.0 0.0 0.00 0.00 0.00 63 1008.6
20260904135433 61 0 0.0 0.0 0.00 0.00 0.00 63 1008.4
20260904134431 60 0 0.0 0.0 0.00 0.00 0.00 66 1008.3
20260904133455 58 0 0.0 0.0 0.00 0.00 0.00 69 1008.1
20260904131319 58 0 0.0 0.0 0.00 0.00 0.00 70 1007.8
20260904130329 58 0 0.0 0.0 0.00 0.00 0.00 70 1007.7
20260904125349 58 0 0.0 0.0 0.00 0.00 0.00 70 1007.7
20260904124327 58 0 0.0 0.0 0.00 0.00 0.00 70 1007.5
20260904123336 58 0 0.0 0.0 0.00 0.00 0.00 71 1007.4
20260904122312 58 0 0.0 0.0 0.00 0.00 0.00 71 1007.4
20260904121247 57 0 0.0 0.0 0.00 0.00 0.00 71 1007.4
20260904120244 57 0 0.0 0.0 0.00 0.00 0.00 72 1007.2
20260904115230 57 0 0.0 0.0 0.00 0.00 0.00 71 1007.2
20260904114254 57 0 0.0 0.0 0.00 0.00 0.00 70 1007.3
20260904113259 57 0 0.0 0.0 0.00 0.00 0.00 71 1007.2
20260904112238 57 0 0.0 0.0 0.00 0.00 0.00 71 1007.1
20260904111246 57 0 0.0 0.0 0.00 0.00 0.00 71 1007.2
20260904110231 57 0 0.0 0.0 0.00 0.00 0.00 72 1007.1
20260904105231 56 0 0.0 0.0 0.00 0.00 0.00 72 1007.1
20260904104237 57 0 0.0 0.0 0.00 0.00 0.00 70 1007.1
20260904103249 57 0 0.0 0.0 0.00 0.00 0.00 71 1006.9
20260904102235 57 0 0.0 0.0 0.00 0.00 0.00 70 1006.8
20260904101228 58 0 0.0 0.0 0.00 0.00 0.00 69 1006.7
20260904100206 58 0 0.0 0.0 0.00 0.00 0.00 69 1006.7
20260904095151 58 0 0.0 0.0 0.00 0.00 0.00 68 1006.6
20260904094147 58 0 0.0 0.0 0.00 0.00 0.00 67 1006.4
20260904093147 58 0 4.0 0.0 0.00 0.00 0.00 67 1006.5
20260904091055 57 0 0.0 0.0 0.00 0.00 0.00 66 1006.7
20260904090044 58 0 0.0 0.0 0.00 0.00 0.00 66 1006.7
20260904085055 58 0 0.0 0.0 0.00 0.00 0.00 66 1006.7
20260904084039 58 0 0.0 0.0 0.00 0.00 0.00 65 1006.7
20260904083030 59 0 0.0 0.0 0.00 0.00 0.00 64 1006.7
20260904082037 59 0 0.0 0.0 0.00 0.00 0.00 63 1006.8
20260904081006 59 0 0.0 0.0 0.00 0.00 0.00 62 1006.9
20260904080025 59 0 0.0 0.0 0.00 0.00 0.00 62 1007.0
20260904074953 60 0 0.0 0.0 0.00 0.00 0.00 61 1007.1
20260904074011 60 0 1.0 8.0 0.00 0.00 0.00 60 1007.1
20260904073025 60 253 0.0 0.0 0.00 0.00 0.00 60 1007.2
20260904072035 59 253 0.0 0.0 0.00 0.00 0.00 60 1007.2
20260904071037 60 253 0.0 0.0 0.00 0.00 0.00 59 1007.2
20260904070050 60 253 0.0 0.0 0.00 0.00 0.00 58 1007.2
20260904065108 61 253 0.0 0.0 0.00 0.00 0.00 56 1007.2
20260904062951 62 253 0.0 0.0 0.00 0.00 0.00 52 1007.1
20260904061934 63 253 0.0 0.0 0.00 0.00 0.00 50 1007.0
20260904060902 64 253 0.0 0.0 0.00 0.00 0.00 49 1007.0
20260904055848 64 253 0.0 0.0 0.00 0.00 0.00 48 1006.8
20260904052527 64 253 0.0 0.0 0.00 0.00 0.00 49 1006.8